DW1289 Weather Reports


Display with metric or nautical units.
time (UTC)temp
F
wind
direction
speed
MPH
gust
MPH
rain 1hr
in
rain 24hr
in
rain mn
in
humidity
%
barometer
mb
20260507015016 56 0.0 0.0 0.00 0.60 0.54 63 1014.7
20260507014016 56 0.0 0.0 0.00 0.60 0.54 62 1014.5
20260507013016 57 0.0 0.0 0.00 0.60 0.54 60 1014.5
20260507012016 57 0.0 0.0 0.00 0.60 0.54 59 1014.5
20260507011036 58 0.0 1.0 0.00 0.60 0.54 59 1014.5
20260507010016 58 0.0 1.0 0.00 0.60 0.54 58 1014.4
20260507005016 58 0.0 1.0 0.00 0.60 0.54 58 1014.3
20260507004016 58 0 1.0 3.0 0.00 0.60 0.54 57 1014.4
20260507003016 59 0.0 3.0 0.00 0.60 0.54 57 1014.5
20260507002016 59 315 1.0 5.0 0.00 0.60 0.54 57 1014.4
20260507001016 59 293 2.0 6.0 0.00 0.61 0.54 58 1014.4
20260507000016 60 270 1.0 5.0 0.00 0.61 0.54 59 1014.3
20260506235016 60 0.0 3.0 0.00 0.62 0.54 58 1014.1
20260506234016 60 315 1.0 3.0 0.00 0.63 0.54 56 1013.9
20260506233016 60 0 1.0 3.0 0.00 0.68 0.54 54 1013.8
20260506232016 61 338 1.0 5.0 0.00 0.70 0.54 53 1014.1
20260506231016 61 270 1.0 4.0 0.00 0.72 0.54 52 1014.1
20260506230036 61 293 1.0 3.0 0.00 0.73 0.54 52 1014.2
20260506225016 61 0 2.0 6.0 0.00 0.74 0.54 52 1014.0
20260506224016 61 315 2.0 7.0 0.00 0.74 0.54 50 1014.2
20260506223017 61 248 2.0 5.0 0.00 0.76 0.54 51 1013.6
20260506222036 62 248 2.0 7.0 0.00 0.78 0.54 52 1013.3
20260506221016 62 338 2.0 8.0 0.00 0.79 0.54 49 1013.5
20260506220056 62 248 2.0 6.0 0.00 0.84 0.54 49 1013.6
20260506215016 62 338 2.0 5.0 0.00 0.85 0.54 51 1013.6
20260506214016 62 338 2.0 6.0 0.00 0.85 0.54 49 1013.0
20260506213016 62 248 2.0 6.0 0.00 0.85 0.54 52 1013.5
20260506212016 62 248 2.0 6.0 0.00 0.85 0.54 50 1013.5
20260506211016 62 270 2.0 7.0 0.00 0.85 0.54 50 1014.0
20260506210016 63 293 2.0 6.0 0.00 0.85 0.54 48 1013.9
20260506205016 63 248 2.0 4.0 0.00 0.85 0.54 50 1013.8
20260506204016 63 270 2.0 5.0 0.00 0.85 0.54 50 1014.0
20260506203016 63 23 2.0 6.0 0.00 0.85 0.54 46 1014.1
20260506202016 64 45 2.0 9.0 0.00 0.85 0.54 48 1013.8
20260506201016 64 45 2.0 8.0 0.00 0.85 0.54 48 1013.7
20260506200016 64 338 2.0 8.0 0.00 0.85 0.54 50 1013.7
20260506195016 64 248 2.0 8.0 0.00 0.85 0.54 48 1013.8
20260506194036 64 0 2.0 6.0 0.00 0.85 0.54 49 1014.1
20260506193036 64 68 2.0 9.0 0.00 0.85 0.54 51 1014.2
20260506192016 65 45 3.0 9.0 0.00 0.85 0.54 50 1014.0
20260506191016 66 248 3.0 7.0 0.00 0.86 0.54 52 1013.9
20260506190016 64 68 3.0 9.0 0.00 0.87 0.54 54 1013.8
20260506185016 65 45 2.0 7.0 0.00 0.90 0.54 55 1013.6
20260506184036 64 68 2.0 6.0 0.00 0.91 0.54 56 1013.7
20260506183016 63 315 2.0 8.0 0.00 0.93 0.54 52 1014.0
20260506182016 63 0 2.0 9.0 0.00 0.93 0.54 49 1013.6
20260506181016 62 45 2.0 5.0 0.00 0.94 0.54 53 1013.7
20260506180036 63 45 3.0 8.0 0.00 0.94 0.54 52 1013.8
20260506175016 63 45 3.0 10.0 0.00 0.94 0.54 51 1014.0
20260506174016 63 45 4.0 9.0 0.00 0.94 0.54 52 1013.6
20260506173016 62 45 4.0 11.0 0.00 0.94 0.54 53 1013.7
20260506172016 62 68 4.0 9.0 0.00 0.94 0.54 55 1014.0
20260506171016 62 45 3.0 10.0 0.00 0.94 0.54 53 1014.2
20260506170016 62 45 3.0 9.0 0.00 0.94 0.54 56 1014.3
20260506165016 61 68 3.0 11.0 0.00 0.94 0.54 56 1014.2
20260506164036 61 45 5.0 11.0 0.00 0.94 0.54 56 1014.6
20260506163016 60 45 5.0 12.0 0.00 0.94 0.54 53 1014.4
20260506162016 60 45 4.0 10.0 0.00 0.94 0.54 54 1014.6
20260506161056 60 45 4.0 10.0 0.00 0.94 0.54 56 1014.6
20260506160016 60 45 3.0 11.0 0.00 0.94 0.54 55 1014.6
20260506155036 60 23 3.0 10.0 0.00 0.94 0.54 56 1014.6
20260506154016 59 45 4.0 11.0 0.00 0.94 0.54 61 1014.3
20260506153016 58 68 4.0 9.0 0.00 0.94 0.54 59 1014.2
20260506152016 58 45 4.0 9.0 0.00 0.94 0.54 58 1013.8
20260506151016 56 338 4.0 10.0 0.00 0.94 0.54 64 1013.6
20260506150016 55 68 2.0 7.0 0.00 0.94 0.54 66 1013.8
20260506145016 55 68 4.0 11.0 0.00 0.94 0.54 66 1014.0
20260506144016 54 45 4.0 10.0 0.00 0.94 0.54 68 1013.6
20260506143016 54 23 2.0 9.0 0.00 0.94 0.54 73 1013.7
20260506142016 53 45 3.0 8.0 0.00 0.94 0.54 73 1013.6
20260506141016 52 45 2.0 8.0 0.00 0.94 0.54 80 1013.5
20260506140016 51 315 1.0 5.0 0.00 0.94 0.54 83 1013.3
20260506135016 50 338 2.0 8.0 0.00 0.94 0.54 84 1013.4
20260506134036 49 315 2.0 7.0 0.00 0.94 0.54 84 1013.1
20260506133017 49 45 1.0 5.0 0.00 0.94 0.54 85 1013.2
20260506132016 48 45 1.0 4.0 0.00 0.94 0.54 85 1012.9
20260506131016 48 338 1.0 6.0 0.00 0.94 0.54 86 1013.1
20260506130016 48 0 1.0 3.0 0.00 0.94 0.54 86 1012.7
20260506125016 47 338 1.0 5.0 0.00 0.94 0.54 86 1012.7
20260506124016 47 45 1.0 4.0 0.00 0.94 0.54 87 1012.3
20260506123016 47 68 1.0 3.0 0.00 0.94 0.54 87 1012.4
20260506122016 47 45 2.0 7.0 0.00 0.94 0.54 87 1012.6
20260506121016 47 45 1.0 8.0 0.00 0.94 0.54 88 1012.4
20260506120036 47 68 1.0 6.0 0.00 0.94 0.54 88 1012.3
20260506115016 47 338 1.0 4.0 0.00 0.94 0.54 88 1012.3
20260506114016 46 68 1.0 6.0 0.00 0.94 0.54 88 1012.4
20260506113016 46 0 2.0 5.0 0.00 0.94 0.54 88 1012.1
20260506112016 46 338 1.0 5.0 0.00 0.94 0.54 88 1011.7
20260506111016 46 68 1.0 5.0 0.00 0.94 0.54 87 1011.3
20260506110016 47 45 2.0 6.0 0.00 0.94 0.54 87 1011.0
20260506105016 47 315 1.0 4.0 0.00 0.94 0.54 88 1011.4
20260506104036 47 23 1.0 4.0 0.00 0.94 0.54 88 1011.0
20260506103036 47 45 2.0 6.0 0.00 0.94 0.54 88 1011.0
20260506102016 47 315 2.0 8.0 0.00 0.94 0.54 88 1010.9
20260506101036 48 68 3.0 8.0 0.00 0.94 0.54 89 1010.2
20260506100016 48 23 2.0 8.0 0.00 0.94 0.54 89 1010.1
20260506095016 48 338 2.0 8.0 0.00 0.94 0.54 90 1010.4
20260506094016 48 0 2.0 6.0 0.00 0.94 0.54 90 1009.9
20260506093016 49 23 2.0 6.0 0.00 0.94 0.54 91 1009.7
20260506092036 49 338 1.0 6.0 0.00 0.94 0.54 91 1009.8
20260506091036 49 45 4.0 13.0 0.00 0.94 0.54 91 1009.6
20260506090016 49 45 4.0 16.0 0.00 0.94 0.54 92 1009.6
20260506085016 50 45 3.0 10.0 0.00 0.94 0.54 92 1009.6
20260506084016 50 45 4.0 12.0 0.00 0.94 0.54 92 1009.4
20260506083016 50 68 2.0 6.0 0.00 0.94 0.54 92 1009.3
20260506082016 50 45 2.0 6.0 0.01 0.94 0.54 92 1009.2
20260506081016 50 45 4.0 10.0 0.01 0.94 0.54 92 1008.9
20260506073016 51 338 2.0 10.0 0.10 0.94 0.54 92 1008.2
20260506072016 51 68 1.0 8.0 0.12 0.93 0.53 92 1008.1
20260506071016 52 68 2.0 7.0 0.14 0.93 0.53 92 1007.7
20260506062016 53 338 2.0 10.0 0.08 0.81 0.41 91 1007.7
20260506061016 53 315 3.0 9.0 0.11 0.79 0.39 91 1007.7
20260506051016 60 0.0 0.0 0.28 0.68 0.28 92 1006.8
20260506045016 60 0.0 0.0 0.20 0.60 0.20 92 1006.6
20260506044016 60 0.0 2.0 0.19 0.57 0.17 92 1006.7
20260506043016 60 270 1.0 4.0 0.17 0.55 0.15 92 1006.7
20260506042016 60 270 2.0 5.0 0.04 0.42 0.03 92 1006.9
20260506041016 60 0.0 3.0 0.02 0.40 0.00 92 1006.4
20260506040036 60 248 1.0 3.0 0.02 0.40 0.00 92 1006.5
20260506035016 60 248 1.0 4.0 0.03 0.40 0.40 92 1006.5
20260506034016 60 248 1.0 3.0 0.02 0.38 0.39 92 1006.5
20260506033016 60 225 1.0 4.0 0.03 0.38 0.38 92 1006.6
20260506032017 60 248 1.0 5.0 0.04 0.38 0.38 92 1006.8
20260506031016 60 248 2.0 4.0 0.04 0.38 0.38 92 1007.1
20260506030016 61 248 3.0 8.0 0.04 0.38 0.38 92 1007.2
20260506025036 61 248 4.0 8.0 0.03 0.37 0.37 92 1007.3
20260506024036 61 248 4.0 8.0 0.02 0.36 0.36 92 1007.4
20260506023016 61 248 5.0 12.0 0.01 0.35 0.35 91 1007.5
20260506022016 62 248 5.0 12.0 0.00 0.34 0.34 92 1007.5
20260506021016 62 248 6.0 14.0 0.00 0.34 0.34 92 1007.5
20260506020016 62 248 4.0 9.0 0.00 0.34 0.34 92 1007.5